Weather History for GMAD - November, 2011

Change the Weather History Date:

Tuesday, November 15, 2011

  Actual Average Record
Temperature  
Mean Temperature 64 °F -  
Max Temperature 74 °F - - ()
Min Temperature 55 °F - - ()
Growing Degree Days 14 (Base 50)    
Moisture  
Dew Point 54 °F    
Average Humidity 78    
Maximum Humidity 94    
Minimum Humidity 41    
Precipitation  
Precipitation 0.00 in - - ()
Sea Level Pressure  
Sea Level Pressure 30.01 in    
Wind  
Wind Speed 3 mph ()    
Max Wind Speed 10 mph    
Max Gust Speed -    
Visibility 5.2 miles    
Events      
T = Trace of Precipitation, MM = Missing Value Source: Averaged Metar Reports

Daily Weather History Graph

Daily Weather History Graph

Search for Another Location

Airport or City:

Trip Planner

Search our weather history database for the weather conditions in past years. The results will help you decide how hot, cold, wet, or windy it might be!

Date:

Astronomy

Nov. 15, 2011 Rise Set
Actual Time 7:02 AM WET 5:41 PM WET
Civil Twilight 6:37 AM WET 6:06 PM WET
Nautical Twilight 6:08 AM WET 6:35 PM WET
Astronomical Twilight 5:39 AM WET 7:03 PM WET
Moon 9:37 PM WET (11/15) 10:50 AM WET (11/15)
Length of Visible Light 11h 29m
Length of Day
10h 38m
Waning Gibbous, 81% of the Moon is Illuminated
Nov 15
Waning Gibbous
Nov 18
Last Quarter
Nov 25
New
Dec 2
First Quarter
Dec 10
Full

Hourly Weather History & Observations

Time (WET) Temp. Dew Point Humidity Pressure Visibility Wind Dir Wind Speed Gust Speed Precip Events Conditions
12:00 AM 62 °F 58 °F 82% 30.05 in 6 mi South 4.6 mph - -   Clear
12:00 AM 60.8 °F 57.2 °F 88% 30.04 in - Variable 2.3 mph - N/A   Clear
1:00 AM 55.4 °F 53.6 °F 94% 30.01 in - SE 3.5 mph - N/A   Clear
2:00 AM 59.0 °F 55.4 °F 88% 30.01 in 6.2 mi Calm Calm - N/A   Unknown
3:00 AM 58 °F 55 °F 86% 30.02 in 6 mi Calm Calm - -   Clear
3:00 AM 57.2 °F 53.6 °F 88% 30.01 in 6.2 mi Calm Calm - N/A   Unknown
4:00 AM 57.2 °F 55.4 °F 94% 30.01 in - Calm Calm - N/A   Clear
5:00 AM 57.2 °F 55.4 °F 94% 30.01 in 6.2 mi ESE 4.6 mph - N/A   Scattered Clouds
6:00 AM 57 °F 54 °F 88% 30.02 in 6 mi SSE 2.3 mph - -   Scattered Clouds
6:00 AM 57.2 °F 55.4 °F 94% 30.01 in 6.2 mi SSE 2.3 mph - N/A   Scattered Clouds
7:00 AM 55.4 °F 53.6 °F 94% 30.01 in 6.2 mi Calm Calm - N/A   Scattered Clouds
7:01 AM 55.4 °F 53.6 °F 94% 30.01 in 1.9 mi Calm Calm - N/A   Mostly Cloudy
7:25 AM 55.4 °F 53.6 °F 94% 30.04 in 6.2 mi SW 2.3 mph - N/A   Mostly Cloudy
7:29 AM 55.4 °F 53.6 °F 94% 30.04 in 0.1 mi WSW 1.2 mph - N/A   Mostly Cloudy
7:49 AM 57.2 °F 55.4 °F 94% 30.04 in 1.9 mi Variable 2.3 mph - N/A   Mostly Cloudy
7:55 AM 57.2 °F 55.4 °F 94% 30.04 in 1.9 mi SSW 3.5 mph - N/A   Mostly Cloudy
8:00 AM 57.2 °F 55.4 °F 94% 30.04 in 1.9 mi SSW 3.5 mph - N/A   Mostly Cloudy
9:00 AM 61 °F 58 °F 87% 30.05 in 6 mi SSW 3.5 mph - -   Partly Cloudy
9:00 AM 57.2 °F 55.4 °F 94% 30.04 in 3.1 mi South 3.5 mph - N/A   Scattered Clouds
10:00 AM 66.2 °F 57.2 °F 73% 30.04 in 6.2 mi SSW 5.8 mph - N/A   Scattered Clouds
11:00 AM 69.8 °F 55.4 °F 60% 30.04 in 6.2 mi Calm Calm - N/A   Scattered Clouds
12:00 PM 69.8 °F 55.4 °F 60% 30.04 in 6.2 mi SSW 4.6 mph - N/A   Mostly Cloudy
1:00 PM 73.4 °F 53.6 °F 50% 30.01 in 6.2 mi Variable 2.3 mph - N/A   Mostly Cloudy
2:00 PM 73.4 °F 51.8 °F 47% 29.98 in 6.2 mi Variable 3.5 mph - N/A   Mostly Cloudy
3:00 PM 72 °F 53 °F 41% 29.96 in 6 mi West 10.4 mph - -   Partly Cloudy
3:00 PM 71.6 °F 53.6 °F 53% 29.95 in 6.2 mi West 10.4 mph - N/A   Scattered Clouds
4:00 PM 71.6 °F 51.8 °F 50% 29.95 in 6.2 mi West 9.2 mph - N/A   Scattered Clouds
5:00 PM 69.8 °F 51.8 °F 53% 29.95 in 6.2 mi West 9.2 mph - N/A   Partly Cloudy
6:00 PM 67 °F 52 °F 49% 29.95 in 6 mi SSW 3.5 mph - -  
6:00 PM 66.2 °F 51.8 °F 60% 29.95 in - SSW 3.5 mph - N/A   Clear
7:00 PM 62.6 °F 51.8 °F 68% 29.95 in - SSE 4.6 mph - N/A   Clear
8:00 PM 60.8 °F 53.6 °F 77% 29.98 in - SE 4.6 mph - N/A   Clear
9:00 PM 60 °F 53 °F 71% 30.00 in 6 mi East 2.3 mph - -  
9:00 PM 59.0 °F 53.6 °F 82% 29.98 in - Variable 2.3 mph - N/A   Clear
10:00 PM 59.0 °F 53.6 °F 82% 30.01 in - Variable 2.3 mph - N/A   Clear
11:00 PM 57.2 °F 51.8 °F 82% 30.01 in - ENE 3.5 mph - N/A   Clear